map of OTP home
OTP - Airport
Location
City:  Bucharest, Ilfov, Romania
Name:Henri Coanda International Airport
Old (Alt.):Otopeni
ICAO:LROP
IATA:OTP

Details
Type:Airport (Aerodrome, Airfield)
Use:Public/Civil, Military, International (customs port of entry)
Latitude:4434'20"N (44.572161)
Longitude:2606'08"E (26.102178)
Datum:WGS 1984
Elevation:314 ft (96 m)
Variation:5.67E (WMM2015 magnetic declination)
0.11 annual change
Runways:2
Longest:11484 × 148 ft (3500 × 45 m), paved

Time
Time Zone:UTC+2 (DST+3)
Local Time:

Weather
METAR:LROP 201800Z 21003KT 170V250 9999 VCTS SCT050CB 24/18 Q1009 TEMPO VRB15KT 5000 TSRA
TAF:LROP 201700Z 2018/2118 31006KT 9999 SCT050CB
BECMG 2018/2020 NSC
TEMPO 2101/2104 5000 BR
TEMPO 2111/2117 SCT035CB

Related Locations
Nearby:
Farthest:CHT: 11322 mi / 18221 km
Waitangi [Tuuta], CIT, NZ

Find:

   beyond  
but within

Other Information
Maps:
NOTAMs:
Links:
Sources:

  
  • flag of Romania
  • flag of Bucharest
  

Sectional Chart

Flight Planning
at skyvector.com

Satellite Image

Google Maps Satellite view

 

Copyright © 2004-2018 Karl L. Swartz. All rights reserved.
The Great Circle Mapper name and logo are trademarks of the Great Circle Mapper.
All other trademarks mentioned herein belong to their respective owners.
Please see credits for attibutions and further copyright information.

  Follow gcmap on Facebook Follow gcmap on Twitter Follow gcmap on Google+ GCmap on LinkedIn

hCard Microformat

Geo Microformat